Big Bear City, CA

5:47 AM PDT on October 22, 2017 (GMT -0700)
Big Bear City

Weather History for KL35 - December, 2012

Change the Weather History Date:

Saturday, December 1, 2012

  Actual Average (KBUO) Record (KBUO)
Temperature  
Mean Temperature 40 °F -  
Max Temperature 48 °F 61 °F 66 °F (2000)
Min Temperature 32 °F 43 °F 32 °F (1996)
Degree Days  
Heating Degree Days 25    
Moisture  
Dew Point 33 °F    
Average Humidity 78    
Maximum Humidity 100    
Minimum Humidity 54    
Precipitation  
Precipitation 0.00 in - - ()
Sea Level Pressure  
Sea Level Pressure 30.20 in    
Wind  
Wind Speed 6 mph (WSW)    
Max Wind Speed 12 mph    
Max Gust Speed 23 mph    
Visibility 9 miles    
Events Fog    
Averages and records for this station are not official NWS values.
T = Trace of Precipitation, MM = Missing Value Source: NWS Daily Summary

Daily Weather History Graph

Daily Weather History Graph

Search for Another Location

Airport or City:

Trip Planner

Search our weather history database for the weather conditions in past years. The results will help you decide how hot, cold, wet, or windy it might be!

Date:

Astronomy

Dec. 01, 2012 Rise Set
Actual Time 6:35 AM PST 4:37 PM PST
Civil Twilight 6:08 AM PST 5:04 PM PST
Nautical Twilight 5:37 AM PST 5:36 PM PST
Astronomical Twilight 5:07 AM PST 6:06 PM PST
Moon 7:29 PM PST (12/1) 8:53 AM PST (12/1)
Length of Visible Light 10h 56m
Length of Day
10h 01m
Waning Gibbous, 91% of the Moon is Illuminated
Dec 1
Waning Gibbous
Dec 6
Last Quarter
Dec 13
New
Dec 19
First Quarter
Dec 28
Full

Hourly Weather History & Observations

Time (PST) Temp. Windchill Dew Point Humidity Pressure Visibility Wind Dir Wind Speed Gust Speed Precip Events Conditions
12:15 AM 37.4 °F 32.1 °F 32.0 °F 81% 30.21 in 10.0 mi WSW 6.9 mph - N/A   Clear
12:35 AM 37.4 °F 32.8 °F 32.0 °F 81% 30.22 in 10.0 mi WSW 5.8 mph - N/A   Clear
12:55 AM 37.4 °F 30.8 °F 32.0 °F 81% 30.20 in 10.0 mi West 9.2 mph - N/A   Clear
1:15 AM 37.4 °F 30.8 °F 32.0 °F 81% 30.20 in 10.0 mi West 9.2 mph - N/A   Clear
2:15 AM 37.4 °F 29.8 °F 33.8 °F 87% 30.20 in 10.0 mi West 11.5 mph - N/A   Clear
2:35 AM 35.6 °F 32.8 °F 32.0 °F 87% 30.21 in 10.0 mi SW 3.5 mph - N/A   Clear
2:55 AM 35.6 °F 31.7 °F 32.0 °F 87% 30.20 in 10.0 mi SW 4.6 mph - N/A   Clear
3:15 AM 37.4 °F 34.9 °F 33.8 °F 87% 30.20 in 10.0 mi SW 3.5 mph - N/A   Clear
3:35 AM 37.4 °F 34.9 °F 33.8 °F 87% 30.20 in 10.0 mi WSW 3.5 mph - N/A   Clear
3:55 AM 37.4 °F 32.8 °F 33.8 °F 87% 30.19 in 10.0 mi West 5.8 mph - N/A   Clear
4:15 AM 37.4 °F 31.4 °F 33.8 °F 87% 30.19 in 10.0 mi WSW 8.1 mph - N/A   Clear
4:35 AM 37.4 °F 30.3 °F 33.8 °F 87% 30.19 in 10.0 mi West 10.4 mph - N/A   Clear
4:55 AM 39.2 °F 32.5 °F 35.6 °F 87% 30.19 in 10.0 mi West 10.4 mph - N/A   Clear
5:15 AM 37.4 °F 32.1 °F 35.6 °F 93% 30.19 in 10.0 mi WSW 6.9 mph - N/A   Clear
5:35 AM 39.2 °F 35.0 °F 33.8 °F 81% 30.20 in 10.0 mi WSW 5.8 mph - N/A   Clear
6:15 AM 37.4 °F 32.1 °F 33.8 °F 87% 30.20 in 10.0 mi West 6.9 mph - N/A   Clear
6:35 AM 39.2 °F 34.2 °F 33.8 °F 81% 30.20 in 10.0 mi WSW 6.9 mph - N/A   Clear
6:55 AM 41.0 °F 34.3 °F 33.8 °F 76% 30.21 in 10.0 mi WSW 11.5 mph 16.1 mph N/A   Clear
7:15 AM 41.0 °F 35.8 °F 33.8 °F 76% 30.21 in 10.0 mi WSW 8.1 mph - N/A   Clear
7:35 AM 41.0 °F 35.2 °F 33.8 °F 76% 30.21 in 10.0 mi WSW 9.2 mph 17.3 mph N/A   Clear
7:55 AM 41.0 °F 34.7 °F 33.8 °F 76% 30.22 in 10.0 mi WSW 10.4 mph - N/A   Clear
8:15 AM 42.8 °F 38.0 °F 33.8 °F 70% 30.22 in 10.0 mi WSW 8.1 mph - N/A   Clear
8:35 AM 42.8 °F 36.6 °F 33.8 °F 70% 30.22 in 10.0 mi WSW 11.5 mph 16.1 mph N/A   Clear
8:55 AM 42.8 °F 37.0 °F 33.8 °F 70% 30.23 in 10.0 mi WSW 10.4 mph 23.0 mph N/A   Clear
9:15 AM 44.6 °F 40.2 °F 33.8 °F 66% 30.23 in 10.0 mi WSW 8.1 mph - N/A   Clear
9:35 AM 44.6 °F 39.7 °F 33.8 °F 66% 30.23 in 10.0 mi WSW 9.2 mph - N/A   Clear
9:55 AM 46.4 °F 41.1 °F 32.0 °F 57% 30.23 in 10.0 mi West 11.5 mph 18.4 mph N/A   Clear
10:15 AM 46.4 °F 41.9 °F 32.0 °F 57% 30.23 in 10.0 mi WSW 9.2 mph - N/A   Clear
10:35 AM 48.2 °F - 32.0 °F 54% 30.23 in 10.0 mi SSW 8.1 mph - N/A   Clear
10:55 AM 48.2 °F - 32.0 °F 54% 30.23 in 10.0 mi SSW 4.6 mph - N/A   Clear
11:15 AM 46.4 °F 42.9 °F 33.8 °F 62% 30.22 in 10.0 mi SW 6.9 mph 17.3 mph N/A   Clear
11:35 AM 46.4 °F 42.4 °F 35.6 °F 66% 30.22 in 10.0 mi South 8.1 mph - N/A   Clear
11:55 AM 46.4 °F 42.9 °F 35.6 °F 66% 30.22 in 10.0 mi South 6.9 mph - N/A   Scattered Clouds
12:15 PM 46.4 °F 43.5 °F 33.8 °F 62% 30.21 in 10.0 mi SSW 5.8 mph - N/A   Mostly Cloudy
12:35 PM 48.2 °F - 33.8 °F 58% 30.20 in 10.0 mi WSW 6.9 mph - N/A   Scattered Clouds
12:55 PM 46.4 °F 42.4 °F 33.8 °F 62% 30.20 in 10.0 mi SSW 8.1 mph - N/A   Clear
1:15 PM 48.2 °F - 33.8 °F 58% 30.19 in 10.0 mi SW 6.9 mph - N/A   Clear
1:35 PM 48.2 °F - 32.0 °F 54% 30.19 in 10.0 mi West 9.2 mph - N/A   Clear
1:55 PM 46.4 °F 41.9 °F 32.0 °F 57% 30.19 in 10.0 mi West 9.2 mph - N/A   Clear
2:15 PM 46.4 °F 42.4 °F 32.0 °F 57% 30.18 in 10.0 mi WSW 8.1 mph - N/A   Clear
2:35 PM 46.4 °F 42.9 °F 32.0 °F 57% 30.18 in 10.0 mi SW 6.9 mph - N/A   Clear
2:55 PM 48.2 °F - 32.0 °F 54% 30.18 in 10.0 mi WSW 5.8 mph - N/A   Scattered Clouds
3:15 PM 46.4 °F 42.4 °F 32.0 °F 57% 30.17 in 10.0 mi SW 8.1 mph - N/A   Scattered Clouds
3:55 PM 44.6 °F 42.2 °F 32.0 °F 61% 30.17 in 10.0 mi SW 4.6 mph - N/A   Clear
4:15 PM 44.6 °F 42.2 °F 32.0 °F 61% 30.17 in 10.0 mi SW 4.6 mph - N/A   Clear
4:35 PM 44.6 °F 43.1 °F 33.8 °F 66% 30.17 in 10.0 mi WSW 3.5 mph - N/A   Clear
4:55 PM 42.8 °F - 33.8 °F 70% 30.17 in 10.0 mi Calm Calm - N/A   Clear
5:15 PM 39.2 °F - 33.8 °F 81% 30.17 in 10.0 mi Calm Calm - N/A   Clear
5:35 PM 37.4 °F - 32.0 °F 81% 30.18 in 10.0 mi Calm Calm - N/A   Clear
5:55 PM 37.4 °F - 32.0 °F 81% 30.17 in 7.0 mi Calm Calm - N/A   Clear
6:15 PM 35.6 °F - 32.0 °F 87% 30.17 in 10.0 mi Calm Calm - N/A   Clear
6:35 PM 37.4 °F - 33.8 °F 87% 30.17 in 10.0 mi Calm Calm - N/A   Clear
6:55 PM 35.6 °F 29.9 °F 33.8 °F 93% 30.17 in 10.0 mi WSW 6.9 mph - N/A   Clear
7:15 PM 37.4 °F 34.9 °F 33.8 °F 87% 30.18 in 7.0 mi SW 3.5 mph - N/A   Mostly Cloudy
7:35 PM 37.4 °F - 33.8 °F 87% 30.18 in 5.0 mi Calm Calm - N/A   Overcast
7:55 PM 35.6 °F 31.7 °F 33.8 °F 93% 30.18 in 2.5 mi West 4.6 mph - N/A   Overcast
8:15 PM 35.6 °F - 32.0 °F 87% 30.19 in 2.5 mi Calm Calm - N/A   Overcast
8:35 PM 33.8 °F - 32.0 °F 93% 30.19 in 0.8 mi Calm Calm - N/A   Overcast
8:55 PM 33.8 °F - 32.0 °F 93% 30.19 in 0.5 mi Calm Calm - N/A Fog Fog
9:15 PM 33.8 °F 30.8 °F 32.0 °F 93% 30.19 in 0.5 mi West 3.5 mph - N/A Fog Fog
9:35 PM 33.8 °F - 32.0 °F 93% 30.18 in 0.2 mi Calm Calm - N/A Fog Fog
9:55 PM 32.0 °F - 32.0 °F 100% 30.17 in 1.8 mi Calm Calm - N/A   Overcast
10:15 PM 32.0 °F - 32.0 °F 100% 30.19 in 0.8 mi Calm Calm - N/A   Overcast
10:35 PM 32.0 °F 28.7 °F 32.0 °F 100% 30.19 in 2.5 mi SSW 3.5 mph - N/A   Scattered Clouds
10:55 PM 32.0 °F - 32.0 °F 100% 30.19 in 10.0 mi Calm Calm - N/A   Clear
11:15 PM 32.0 °F 27.5 °F 32.0 °F 100% 30.20 in 7.0 mi West 4.6 mph - N/A   Clear
11:35 PM 35.6 °F 31.7 °F 35.6 °F 100% 30.20 in 10.0 mi SW 4.6 mph - N/A   Clear
11:55 PM 37.4 °F 30.8 °F 35.6 °F 93% 30.19 in 7.0 mi West 9.2 mph - N/A   Clear